Vorticity
nan nan nan nan nan nan nan nan nan nan nan nan nan nan nan nan nan nan nan nan nan nan nan nan nan nan nan nan nan nan nan nan nan nan nan nan nan nan nan nan nan nan nan nan nan nan nan nan nan nan nan nan nan nan nan nan nan nan nan nan nan nan nan nan nan nan nan nan nan nan nan nan nan nan nan nan nan nan nan nan nan nan nan nan nan nan nan nan nan nan nan nan nan nan nan nan nan nan nan nan nan nan nan
nan 4 4 4 4 3 4 6 6 6 6 6 6 6 5 5 5 5 5 5 4 4 4 3 3 3 4 4 4 4 4 3 3 3 2 2 1 1 2 2 3 3 7 17 24 21 12 8 8 8 8 7 6 5 5 5 6 6 7 7 8 10 13 10 8 6 6 6 6 5 5 5 5 5 6 6 6 6 6 6 6 6 6 6 6 6 5 5 5 5 5 5 5 5 5 5 5 5 5 5 5 5 nan
nan 4 4 3 3 4 5 6 6 6 6 6 6 6 5 5 5 5 5 5 4 4 4 3 3 3 3 4 4 4 4 3 3 3 2 2 2 2 2 2 3 4 8 17 22 17 6 5 6 6 6 7 7 7 7 6 6 6 6 7 9 11 14 9 7 7 7 7 7 7 7 6 6 6 7 7 6 6 6 6 6 6 7 7 6 6 5 5 5 5 5 5 5 5 5 5 5 5 5 5 5 5 nan
nan 4 3 2 3 4 6 7 6 6 6 6 6 6 5 5 5 5 5 5 4 4 4 3 3 3 3 4 4 4 4 3 3 3 2 2 2 2 2 3 3 4 8 15 18 11 1 2 4 5 5 5 6 6 6 6 6 6 6 7 9 13 13 8 7 7 7 7 7 7 8 8 7 7 7 7 7 7 6 6 6 6 7 7 8 7 6 5 5 5 5 5 5 5 5 5 5 5 5 5 5 5 nan
nan 4 2 2 3 5 7 6 6 6 6 6 5 5 5 5 5 5 5 5 4 4 4 3 3 3 3 3 4 4 4 3 3 3 2 2 2 1 2 3 3 4 7 13 14 9 5 3 2 2 3 3 4 4 5 6 6 6 6 7 11 13 10 7 6 6 6 7 7 7 8 8 8 8 8 8 7 7 6 5 5 6 6 7 8 8 7 6 6 5 5 5 5 5 5 5 5 6 5 5 5 6 nan
nan 3 2 2 3 5 7 6 6 6 5 5 5 5 6 6 6 5 5 5 5 5 4 3 3 3 3 3 3 3 3 3 3 2 2 2 1 1 2 3 3 4 6 11 15 13 10 6 4 4 4 4 4 5 4 5 6 6 7 8 12 12 7 6 6 6 6 6 7 7 7 7 7 8 8 7 7 7 6 5 5 5 6 7 9 8 7 6 6 5 6 6 6 6 6 6 6 6 5 5 6 6 nan
nan 4 3 2 3 5 7 6 6 6 5 5 5 5 6 6 6 6 5 5 5 5 4 4 3 3 3 3 3 3 3 3 3 2 2 1 1 1 2 2 3 4 6 13 18 19 14 8 7 6 5 4 5 5 5 6 6 7 8 10 12 10 6 6 6 6 6 6 6 6 7 7 7 7 7 6 6 6 6 6 5 4 5 6 7 7 6 6 6 6 6 6 6 6 6 6 6 6 5 5 5 6 nan
nan 4 3 3 4 6 7 7 6 6 5 5 5 6 6 6 6 6 5 5 5 5 5 4 4 4 3 3 3 3 3 3 2 2 1 1 1 2 2 2 3 4 8 16 21 21 14 6 5 5 4 5 6 6 6 5 6 6 8 10 10 7 7 6 6 6 6 6 6 6 6 6 6 7 6 6 5 5 5 5 5 5 5 6 6 6 6 6 6 6 6 6 7 7 7 7 6 6 5 5 5 6 nan
nan 5 4 5 5 6 7 7 6 6 5 5 5 6 6 6 6 6 6 5 5 5 5 4 4 4 4 4 4 4 4 3 2 2 1 1 1 1 2 3 4 5 10 17 22 21 11 3 4 5 4 6 7 6 6 4 5 6 7 11 11 10 8 7 7 6 6 6 6 6 6 6 6 6 6 6 5 4 5 5 5 5 6 6 6 6 6 6 6 6 6 6 7 7 7 7 6 6 5 5 5 5 nan
nan 5 6 6 6 6 7 7 6 6 5 5 5 6 6 6 6 6 6 5 5 5 5 5 5 5 5 5 4 4 4 3 2 2 1 1 1 2 2 3 5 6 10 17 21 18 9 4 6 6 6 7 7 5 4 4 5 6 7 13 14 11 7 7 6 7 6 6 6 6 6 6 6 6 6 6 5 5 5 5 5 6 6 6 6 6 6 6 6 6 6 6 6 7 7 7 6 6 6 5 5 5 nan
nan 5 6 6 5 6 7 7 6 5 5 5 5 5 6 6 6 6 6 6 5 5 5 5 5 5 5 5 5 4 4 3 3 2 1 1 2 2 3 4 5 6 9 14 17 15 8 7 7 6 7 7 6 4 3 4 5 5 7 15 13 8 6 6 6 6 6 6 6 5 5 6 6 6 6 6 5 5 5 5 5 6 6 6 6 6 6 6 6 6 6 6 6 6 6 6 6 6 6 6 6 6 nan
nan 5 5 4 4 5 6 6 6 5 5 5 5 5 5 6 6 6 6 6 6 5 5 5 5 6 5 5 5 4 4 3 3 2 2 1 2 2 3 5 5 5 7 12 14 12 5 4 6 7 7 6 4 4 4 5 5 6 11 15 10 6 5 6 6 6 6 6 5 5 5 5 5 5 5 5 5 5 5 5 6 6 6 5 5 5 5 5 5 5 5 5 6 6 6 6 6 6 6 6 6 6 nan
nan 4 2 3 4 6 6 6 6 6 5 5 4 4 4 5 5 6 6 6 6 6 6 5 6 6 6 5 5 4 4 3 3 2 2 2 2 2 3 4 5 5 6 10 12 10 4 4 6 6 5 4 4 5 6 6 6 8 15 12 7 4 4 5 5 5 5 5 5 5 5 5 5 5 5 5 5 5 5 5 6 6 6 5 5 5 5 5 5 5 5 5 5 5 6 6 6 6 6 6 5 6 nan
nan -0 1 5 6 6 6 6 6 6 5 5 5 4 4 4 5 5 6 6 6 6 6 6 6 6 5 5 5 4 4 4 3 2 2 2 2 3 3 4 4 4 7 10 12 10 7 7 6 4 4 5 6 6 7 6 8 13 17 8 4 3 3 3 4 4 5 5 5 5 5 5 5 5 5 5 5 5 5 5 5 6 6 5 5 5 5 5 5 5 5 5 5 5 5 5 5 5 5 5 5 5 nan
nan 1 5 7 7 7 7 6 6 6 6 5 5 5 5 4 4 4 5 5 5 6 6 6 6 5 5 5 5 5 4 4 3 3 2 2 2 2 3 3 3 4 9 12 11 11 11 8 5 4 5 6 6 6 5 5 9 15 15 6 3 2 2 2 3 3 4 4 4 5 4 5 5 5 5 5 5 5 5 5 5 5 5 5 5 5 5 5 5 5 5 5 5 5 5 5 5 5 5 5 5 5 nan
nan 6 8 8 8 7 7 7 6 6 6 6 6 6 6 5 4 4 4 4 5 5 6 6 5 5 4 4 4 3 2 4 3 3 3 2 3 3 3 3 4 6 10 11 10 13 12 8 6 6 7 7 6 5 4 6 10 15 10 4 4 3 2 2 3 3 4 4 4 4 4 4 4 5 5 4 4 4 5 5 5 5 5 5 5 5 4 5 4 4 4 5 5 4 5 5 5 4 5 4 5 4 nan
nan 8 9 8 8 8 7 7 7 6 6 6 7 7 6 5 4 4 4 4 5 5 5 5 5 5 4 4 2 -0 0 4 4 4 4 3 3 3 3 3 5 8 9 9 10 12 10 6 6 7 7 6 5 5 5 7 11 12 7 5 4 3 3 3 3 4 5 5 5 4 4 4 4 4 4 4 4 4 4 4 4 4 4 4 4 4 4 4 4 4 4 4 4 4 4 4 4 4 4 4 4 4 nan
nan 9 9 8 8 8 8 7 7 7 7 7 7 6 6 5 4 4 4 5 5 5 5 5 5 5 3 2 -1 -2 1 4 5 5 5 4 4 4 4 6 7 8 8 8 10 12 10 6 6 7 7 6 5 6 6 9 12 11 6 5 4 3 2 3 4 5 7 6 5 4 5 4 4 4 4 4 4 4 4 4 4 4 4 4 4 4 4 4 4 4 4 4 4 4 4 4 4 4 4 4 4 4 nan
nan 8 8 8 8 9 8 8 7 7 7 7 7 6 6 5 4 4 5 6 6 6 6 6 5 4 2 -1 -3 -1 3 5 5 5 5 6 6 6 7 7 8 7 7 9 11 12 10 6 6 7 7 6 6 7 7 11 13 11 7 5 4 3 3 3 5 7 8 6 5 5 5 4 4 4 4 4 4 4 4 4 4 4 4 4 4 4 4 4 3 3 3 3 3 3 3 3 3 3 4 4 4 4 nan
nan 5 5 6 7 8 7 7 7 6 6 6 5 4 3 2 3 4 6 6 6 6 7 6 3 1 -2 -4 -2 2 5 5 5 6 6 6 7 7 7 7 7 7 7 9 11 11 10 6 6 7 7 7 7 7 8 12 14 13 10 7 6 5 4 4 5 7 6 5 5 5 5 4 4 3 4 4 4 4 4 4 4 4 4 4 4 4 3 4 3 3 3 3 3 3 3 3 3 3 3 4 4 4 nan
nan 3 3 4 4 3 3 3 4 4 5 5 1 1 1 2 3 4 4 4 5 6 5 1 -2 -2 -2 -1 2 4 5 5 5 6 6 6 6 7 7 6 6 7 8 9 11 11 9 6 7 7 7 6 6 6 8 12 12 12 11 10 9 7 5 5 6 7 6 5 5 5 5 4 3 3 3 3 3 3 3 3 3 4 3 4 4 4 4 4 4 3 3 3 3 3 3 3 3 3 3 4 4 4 nan
nan 4 3 2 2 1 1 2 2 3 5 3 -2 -0 3 4 5 5 3 3 5 6 3 -1 -1 1 3 3 4 4 5 6 6 6 6 6 6 6 6 6 7 7 9 9 11 11 9 7 7 7 7 6 6 7 8 9 9 9 9 9 9 8 8 8 8 8 6 6 6 5 5 4 3 3 3 3 3 3 3 3 3 3 3 3 3 4 4 4 4 4 4 3 3 3 3 3 3 3 3 3 3 3 nan
nan 6 4 3 3 3 4 4 5 5 6 3 0 2 5 6 7 6 4 5 6 6 3 1 2 4 5 5 4 4 5 6 5 6 7 6 6 6 6 6 7 8 9 10 11 11 9 8 8 7 7 6 6 7 8 7 7 6 6 7 8 9 10 11 10 9 7 8 7 6 5 3 3 3 3 3 3 3 3 3 2 3 3 3 3 3 4 4 4 4 3 3 3 3 3 3 3 3 3 3 3 3 nan
nan 6 5 4 5 5 6 6 6 6 6 3 3 4 6 7 7 6 5 6 7 6 5 4 4 5 6 6 5 4 6 6 5 5 6 6 6 6 6 6 7 8 9 11 10 10 9 8 8 7 7 7 6 8 9 7 5 4 4 5 6 7 11 13 12 10 9 9 8 7 5 4 3 2 3 3 3 3 3 3 3 3 3 3 3 3 4 4 4 3 3 3 3 2 3 3 3 3 3 2 3 3 nan
nan 6 6 5 6 6 6 7 6 6 5 4 5 6 7 7 6 6 5 6 6 6 5 5 4 5 6 6 5 4 5 7 6 5 6 6 6 5 5 6 6 8 10 10 9 8 9 9 8 8 8 7 6 8 9 8 6 4 4 4 4 6 8 10 10 10 10 10 9 9 6 5 4 3 3 3 3 3 4 3 4 4 4 3 3 4 4 4 4 3 3 2 3 3 2 2 3 3 3 2 2 2 nan
nan 6 7 7 6 6 6 7 6 6 5 5 6 7 7 6 5 5 5 6 6 6 6 6 5 6 6 6 5 5 6 8 8 8 6 7 7 6 5 5 6 9 11 8 7 7 9 9 9 8 7 6 6 8 10 9 6 4 4 4 4 4 5 6 7 8 9 10 10 9 7 6 6 5 4 4 3 3 4 5 5 5 4 4 3 3 4 4 4 4 3 3 3 3 2 2 2 3 3 2 2 2 nan
nan 6 7 7 6 6 6 6 6 6 5 5 6 7 7 5 5 5 5 6 6 6 6 7 6 6 6 8 7 6 7 10 11 10 8 8 8 8 6 5 7 9 10 7 6 7 8 9 9 8 7 6 6 7 10 10 7 5 4 4 5 5 4 4 4 5 8 10 10 9 8 7 6 6 6 5 5 4 4 5 6 6 5 4 3 3 4 5 5 5 5 5 4 3 2 2 3 3 3 3 3 2 nan
nan 6 7 6 6 6 6 6 6 6 5 6 6 7 7 6 5 5 5 6 7 7 7 7 7 6 6 8 9 9 9 12 13 12 9 9 10 10 9 7 8 9 8 7 6 6 7 10 10 8 6 6 6 6 10 11 9 6 4 4 5 5 4 4 3 4 6 8 9 10 8 6 6 6 7 6 6 6 4 5 6 6 6 5 5 4 3 3 4 5 7 8 6 4 3 4 4 5 5 5 4 3 nan
nan 6 6 6 6 6 6 6 6 6 5 5 6 7 7 7 6 6 6 6 7 7 7 7 7 7 6 7 8 10 10 13 12 10 8 9 10 11 11 8 8 7 8 7 6 5 6 10 10 8 7 7 6 6 9 11 11 8 5 4 5 5 5 4 4 4 5 8 9 9 7 6 5 5 6 7 7 7 5 5 5 5 6 6 6 6 4 4 5 6 9 10 7 4 3 4 5 6 6 7 7 6 nan
nan 6 7 7 6 6 6 6 6 6 6 6 6 6 7 7 7 7 6 6 7 7 7 7 7 7 6 7 8 9 9 10 10 8 7 8 9 10 10 9 8 8 7 7 6 6 6 9 9 7 6 7 6 6 7 10 12 10 6 4 4 5 5 5 5 5 5 7 8 9 8 6 5 5 5 6 7 7 6 5 5 5 6 7 7 7 6 6 6 7 10 10 6 4 3 4 5 6 6 9 11 11 nan
nan 7 7 7 6 6 6 7 7 6 6 6 6 6 7 7 7 7 7 7 7 7 7 7 7 8 8 8 8 8 8 9 8 7 7 7 7 8 9 10 9 7 5 5 6 6 8 9 8 6 6 7 7 7 6 9 12 13 8 4 4 4 5 6 6 6 6 6 7 8 8 7 6 5 5 5 6 6 7 6 5 5 6 6 7 8 10 11 9 8 10 9 6 4 4 4 4 5 5 7 11 13 nan
nan 7 7 7 6 6 7 7 7 7 7 6 6 6 7 7 7 7 7 7 8 8 7 7 7 8 9 8 8 8 9 8 7 7 7 7 6 6 8 9 9 7 6 6 7 6 7 10 11 9 7 7 6 6 6 8 11 14 12 8 5 4 4 5 6 6 6 6 7 7 7 7 7 6 5 5 4 4 5 6 6 6 6 6 6 8 12 14 12 10 10 9 6 4 4 5 5 5 4 5 8 10 nan
nan 7 7 7 7 7 7 7 7 7 7 7 6 6 7 8 7 7 7 8 8 8 7 8 8 9 9 8 7 8 9 8 7 8 7 7 6 6 7 8 8 8 9 9 7 6 8 11 13 11 8 7 5 5 6 7 9 11 13 12 8 5 4 4 5 5 6 7 7 7 7 7 7 7 6 5 4 4 4 5 5 5 5 5 6 7 12 15 13 10 9 8 6 5 5 5 6 6 4 4 6 7 nan
nan 7 7 7 7 7 7 7 7 8 8 7 7 7 9 9 8 8 7 7 9 9 9 9 9 9 9 8 7 8 8 8 8 8 8 6 6 6 7 6 7 9 10 10 8 6 7 10 12 11 10 8 6 5 5 6 7 8 11 14 12 9 6 4 4 4 6 7 7 7 7 6 7 7 6 5 5 4 4 4 4 5 5 5 6 7 10 11 10 9 9 8 8 6 6 6 6 6 5 6 7 7 nan
nan 7 7 7 7 8 8 7 7 8 8 8 8 9 11 10 8 8 8 8 8 8 8 9 10 9 8 8 7 7 8 9 9 9 8 6 6 7 7 5 6 9 10 9 8 7 7 8 10 12 12 9 7 5 4 5 6 7 11 14 12 13 10 6 4 4 5 6 7 8 7 6 6 6 6 6 5 5 4 4 4 4 5 5 5 6 8 8 8 8 9 10 10 8 7 7 7 7 6 7 7 7 nan
nan 7 7 7 7 8 8 8 8 9 8 7 8 9 10 9 7 7 7 8 8 6 5 8 10 10 8 7 7 7 8 8 8 7 7 7 7 9 8 7 6 8 9 8 8 8 8 6 7 10 13 10 7 5 5 5 7 7 9 11 11 12 12 10 8 7 6 5 6 7 8 7 6 6 6 6 6 5 5 5 5 5 5 5 5 6 6 7 7 7 8 9 10 9 8 8 8 8 9 8 8 7 nan
nan 9 8 8 8 7 8 9 10 10 8 6 7 8 8 8 8 8 8 9 8 5 4 7 9 10 8 6 7 7 8 8 7 6 5 6 8 10 10 9 8 8 7 8 9 10 9 7 5 7 9 11 9 8 6 6 7 7 7 8 9 9 9 11 13 12 10 7 6 6 7 7 7 7 6 6 6 6 6 6 6 6 5 5 5 5 6 6 6 6 7 7 8 8 8 9 10 10 11 9 8 6 nan
nan 9 8 8 8 8 8 9 11 11 8 6 6 6 6 8 8 9 9 9 7 5 5 6 8 9 8 8 8 8 7 7 7 6 5 6 7 8 10 10 10 8 6 8 10 11 9 7 5 5 6 10 11 10 7 7 8 7 6 7 7 7 8 9 10 12 14 12 9 6 5 7 7 8 7 7 6 6 6 6 6 6 6 5 5 5 6 6 6 6 6 6 7 7 7 9 10 12 11 8 6 5 nan
nan 9 9 8 8 7 7 10 12 9 7 6 6 6 7 8 8 8 9 9 7 6 6 6 6 8 8 9 9 9 7 7 7 7 6 6 6 6 9 11 11 9 7 8 9 10 9 8 7 6 6 8 11 11 8 8 9 7 6 7 7 6 7 8 9 8 11 14 14 12 7 5 7 8 8 8 8 7 7 7 7 7 6 5 5 5 6 6 6 6 6 6 6 6 7 9 10 10 8 6 5 4 nan
nan 8 8 8 7 6 8 11 11 8 6 6 6 7 7 8 7 7 8 9 7 7 6 7 6 7 7 8 8 8 7 8 8 7 7 6 6 5 8 10 11 10 9 8 7 8 9 9 9 7 6 7 9 11 12 10 9 6 5 6 7 6 7 7 8 7 7 11 14 16 13 7 6 7 8 8 8 8 8 8 8 8 8 7 6 5 6 6 6 6 6 6 6 6 7 8 8 7 6 4 4 4 nan
nan 7 8 7 7 7 10 11 9 6 5 6 6 7 7 7 7 7 7 8 7 7 8 8 7 7 7 7 7 7 7 8 10 9 7 6 5 5 6 9 10 10 10 8 7 6 8 9 9 9 7 7 9 12 14 11 9 6 5 7 7 7 6 7 7 5 6 8 10 14 17 13 8 6 7 7 8 8 9 9 9 9 10 9 8 6 6 6 6 6 6 6 6 6 7 7 7 6 5 4 4 4 nan
nan 6 7 7 7 8 10 9 7 6 6 6 6 7 7 7 7 7 7 7 7 7 8 8 8 8 8 7 7 7 7 8 9 10 9 6 5 5 6 7 8 9 10 9 7 6 7 8 8 8 8 9 9 11 13 11 9 6 6 8 8 7 6 6 5 5 6 7 8 10 16 17 11 8 7 7 7 7 8 8 8 9 10 11 10 8 6 6 6 6 6 6 7 7 7 7 7 6 5 4 5 5 nan
nan 7 7 7 7 8 9 9 7 6 6 6 6 7 7 7 8 8 7 8 7 7 8 8 8 7 8 8 7 7 7 7 7 9 10 8 7 5 6 6 6 7 9 9 8 7 7 7 8 9 9 9 10 9 10 11 10 7 6 7 8 8 7 5 4 6 7 6 7 8 12 17 16 12 8 7 7 6 7 7 7 7 9 11 11 10 8 6 6 6 6 7 7 7 8 8 7 7 5 5 5 5 nan
nan 8 8 7 8 9 9 8 7 7 7 7 7 6 7 8 8 8 7 8 7 6 7 8 8 7 7 8 8 7 6 6 7 8 9 9 8 7 7 7 7 7 8 8 8 8 7 7 8 8 9 10 10 9 9 10 9 7 5 7 9 11 9 6 5 6 7 6 6 7 9 12 16 17 13 9 8 8 7 7 7 7 8 10 11 10 8 7 6 6 6 7 8 8 8 8 7 6 6 6 5 5 nan
nan 8 8 8 9 9 9 7 6 6 8 8 7 6 6 8 9 7 7 7 7 7 7 8 8 8 7 7 8 8 7 7 8 9 9 9 8 9 8 8 8 8 7 7 7 8 8 8 7 7 7 10 10 9 10 9 8 7 8 8 10 12 11 8 7 6 6 5 5 8 9 8 10 13 15 13 11 11 10 9 8 8 9 10 11 11 9 8 7 6 7 7 8 9 9 8 7 6 6 6 6 6 nan
nan 8 8 9 9 9 8 6 5 6 8 8 8 7 7 7 8 8 7 6 6 7 7 7 8 8 7 8 8 8 8 8 8 9 8 8 8 8 8 8 10 10 8 6 6 7 8 8 7 6 7 9 10 10 11 10 8 8 9 10 12 14 13 10 8 7 5 4 6 9 10 9 8 8 10 11 11 11 13 12 10 9 9 10 11 11 10 9 9 8 7 8 8 9 9 8 7 6 6 6 6 6 nan
nan 8 9 9 9 9 8 6 4 6 8 9 8 7 6 7 8 9 8 6 6 7 8 8 7 6 7 8 8 8 9 8 8 8 8 7 8 8 7 8 10 11 10 8 7 7 7 7 6 5 7 8 9 9 10 10 9 9 8 10 14 17 15 12 10 8 5 5 8 9 10 10 9 6 6 8 9 10 12 13 13 11 9 10 10 11 10 10 11 10 9 8 9 9 9 8 7 7 7 7 6 6 nan
nan 7 9 10 9 8 8 6 4 6 9 9 8 8 6 6 8 8 7 6 7 7 9 9 8 7 6 7 7 8 9 9 8 8 7 6 6 6 6 9 11 11 10 10 10 9 7 6 6 5 6 8 8 8 9 9 9 9 8 10 14 17 16 13 11 8 7 9 11 10 8 9 9 7 6 8 8 9 10 12 14 13 11 10 10 9 9 9 11 12 11 10 9 9 8 8 8 8 8 7 6 6 nan
nan 6 8 10 10 8 9 8 6 6 8 8 9 9 9 9 9 9 7 6 7 7 9 10 10 8 6 5 6 8 9 9 10 10 7 6 6 4 4 8 11 11 10 11 12 13 9 6 5 5 6 7 7 7 8 8 8 7 8 9 11 13 16 14 10 7 10 13 13 10 7 7 7 7 7 8 8 9 9 10 12 14 14 12 10 9 8 9 10 11 13 12 10 9 8 8 8 8 8 7 6 5 nan
nan 6 7 9 10 9 9 9 6 6 7 8 9 10 11 10 10 10 9 6 6 6 7 9 10 10 7 5 6 8 9 10 10 8 6 7 7 6 5 7 9 10 10 10 12 14 13 10 8 6 6 7 7 7 7 7 7 7 7 8 8 9 12 11 9 9 12 15 13 10 7 6 5 6 7 8 8 9 9 9 10 12 13 13 12 10 10 11 10 11 13 13 12 11 9 8 8 8 7 6 6 5 nan
nan 7 7 7 9 9 10 9 6 6 7 9 10 10 10 11 9 9 8 7 4 5 6 6 8 10 9 7 7 8 9 9 8 3 5 9 9 9 9 8 8 8 9 9 9 10 13 13 11 10 8 7 7 7 7 7 7 6 6 7 7 7 8 9 9 9 12 13 12 11 8 5 4 5 8 9 8 9 9 9 9 10 10 10 10 10 10 13 14 13 13 13 13 13 12 10 9 8 7 6 5 5 nan
nan 7 7 6 7 8 11 10 8 7 6 7 8 8 9 9 6 5 7 8 6 5 3 4 6 9 9 9 8 9 8 8 7 3 5 8 8 9 10 10 8 7 9 9 7 5 8 11 11 11 10 8 7 7 7 7 7 7 7 7 6 6 7 8 9 10 11 11 10 10 9 6 6 8 10 10 8 8 8 9 9 8 9 9 9 10 10 13 15 17 15 14 14 12 13 13 11 8 7 6 5 5 nan
nan 6 5 6 7 7 9 11 10 8 6 6 7 6 8 8 6 5 6 7 7 6 6 6 6 6 7 8 8 9 8 7 6 4 4 7 6 5 8 10 9 9 10 10 7 6 6 9 9 10 12 12 10 8 7 7 7 7 8 8 6 5 6 8 10 11 10 8 7 8 8 8 10 12 14 11 9 7 7 7 7 7 8 8 8 8 10 13 15 16 16 15 15 13 13 14 12 9 7 6 5 5 nan
nan 7 4 4 6 7 9 10 10 9 6 6 8 8 9 9 6 5 6 6 7 6 8 8 7 6 7 7 7 7 8 7 7 5 4 5 5 3 5 7 9 10 10 11 9 10 11 12 10 9 9 12 12 10 9 8 7 7 8 8 6 5 5 8 11 12 11 8 6 7 7 7 11 15 16 12 9 7 7 8 7 7 7 7 7 8 10 13 15 13 12 13 13 13 14 14 12 10 8 6 6 5 nan
nan 5 4 4 6 7 10 10 8 8 6 5 8 10 11 10 7 6 8 8 7 5 6 7 8 5 5 7 7 7 9 8 8 7 5 4 4 3 4 5 6 5 9 11 10 10 13 14 13 10 7 10 10 9 10 10 9 8 9 8 6 5 5 7 10 11 9 8 8 9 8 7 9 13 14 12 11 10 9 9 8 7 7 7 8 9 10 11 8 6 8 10 10 10 13 14 13 12 10 7 6 5 nan
nan 3 4 7 8 7 8 9 8 8 6 5 7 9 10 10 10 10 10 10 9 6 3 5 7 3 2 7 10 8 8 9 8 8 7 5 4 1 3 5 5 3 6 9 10 9 10 12 11 9 8 9 10 9 10 12 12 10 9 9 7 6 5 6 8 9 8 7 8 9 9 9 9 10 11 13 13 12 10 8 7 7 7 7 7 8 9 8 5 5 7 8 9 9 12 13 13 12 9 7 6 6 nan
nan 5 6 8 10 9 7 7 9 8 6 5 7 8 8 9 11 11 10 9 8 6 3 5 9 7 2 4 9 10 8 8 9 9 9 8 5 2 0 3 5 5 7 9 10 11 11 11 10 7 8 10 12 11 11 12 12 11 10 10 9 8 7 5 7 8 9 8 7 7 9 10 9 8 9 12 14 13 10 8 8 8 8 7 7 7 9 9 7 6 6 7 8 11 13 11 11 10 8 6 6 5 nan
nan 7 7 8 11 11 7 7 9 8 7 7 6 7 8 9 10 10 11 9 7 9 5 2 6 9 7 4 7 10 10 8 8 9 9 10 9 6 1 -1 0 3 6 10 12 12 12 9 10 8 10 10 11 10 13 14 13 11 11 10 9 11 11 8 6 7 8 8 7 7 8 9 8 7 8 10 11 13 12 10 9 8 8 7 7 7 9 9 8 7 8 9 11 13 13 11 9 8 6 5 5 5 nan
nan 5 7 9 11 11 9 7 8 7 8 8 6 7 9 9 8 8 10 11 9 9 6 2 5 7 9 7 5 9 12 9 7 6 8 10 11 11 6 1 -1 -1 2 8 10 11 11 7 8 9 10 10 9 7 9 13 13 12 11 10 10 12 13 10 8 6 7 7 7 7 7 7 8 7 7 8 9 12 13 12 10 9 7 6 7 9 10 10 9 9 10 11 11 12 11 10 8 7 6 5 5 4 nan
nan 5 7 8 9 9 8 8 8 7 8 8 7 8 8 8 7 7 9 12 12 11 8 4 4 5 9 10 7 7 10 9 8 7 7 8 11 13 11 7 5 3 2 3 5 9 10 10 9 10 9 11 11 10 6 7 10 12 12 11 11 12 12 11 10 8 7 8 8 8 6 6 7 7 8 7 8 9 12 12 11 9 7 7 8 10 10 9 9 10 9 9 10 10 10 9 9 8 7 6 5 4 nan
nan nan nan nan nan nan nan nan nan nan nan nan nan nan nan nan nan nan nan nan nan nan nan nan nan nan nan nan nan nan nan nan nan nan nan nan nan nan nan nan nan nan nan nan nan nan nan nan nan nan nan nan nan nan nan nan nan nan nan nan nan nan nan nan nan nan nan nan nan nan nan nan nan nan nan nan nan nan nan nan nan nan nan nan nan nan nan nan nan nan nan nan nan nan nan nan nan nan nan nan nan nan nan
CAPE
1393 1200 1006 821 690 690 738 744 709 709 674 606 537 537 434 304 304 272 247 202 202 140 148 180 210 210 186 147 76 76 49 28 21 21 17 12 12 10 8 3 3 2 0 nan nan nan nan nan nan nan nan nan nan nan nan nan nan nan nan nan nan nan nan 22 26 26 26 28 28 28 27 28 24 24 17 15 15 10 3 nan nan nan nan 24 46 46 49 42 38 38 38 34 32 32 35 37 37 37 38 38 38 38 33
1318 1119 931 753 667 667 757 718 683 683 653 546 443 443 379 284 284 253 231 187 187 148 134 166 193 193 193 133 65 65 35 25 19 19 16 13 13 9 5 1 1 0 nan nan nan nan nan nan nan nan nan nan nan nan nan nan nan nan nan nan nan nan 2 27 26 26 23 22 20 20 17 18 14 14 11 8 8 4 0 nan nan nan 10 36 67 67 51 41 39 39 37 32 29 29 31 32 32 33 33 32 32 31 31
1240 1039 857 731 731 731 732 694 661 661 592 486 387 387 327 236 236 237 243 174 174 136 102 131 174 174 177 119 71 71 37 22 18 18 15 12 12 6 2 nan nan nan 0 nan nan nan nan nan nan nan nan nan nan nan nan nan nan nan nan nan nan nan 4 28 27 27 25 20 15 15 11 9 8 8 6 4 4 0 nan nan nan 6 31 55 97 97 54 38 37 37 35 31 27 27 27 26 26 27 27 28 28 28 30
1155 1008 831 796 751 751 752 672 600 600 534 427 334 334 276 219 219 222 229 159 159 123 91 81 159 159 162 107 62 62 33 22 17 17 12 7 7 2 0 nan nan nan 1 nan nan nan nan nan nan nan nan nan nan nan nan nan nan nan nan nan nan nan 17 28 28 28 28 23 18 18 12 7 6 6 5 2 2 nan nan 5 5 33 58 133 106 106 48 37 34 34 29 27 24 24 22 20 20 21 24 25 25 27 27
1124 930 850 816 769 769 684 652 581 581 475 371 283 283 229 205 205 210 216 147 147 111 81 87 146 146 129 96 54 54 28 17 12 12 7 3 3 1 nan nan nan nan 1 0 nan nan nan nan nan nan nan nan nan nan nan nan nan nan nan nan nan 0 25 27 30 30 28 24 22 22 18 15 13 13 7 3 3 0 2 23 23 52 80 91 58 58 40 32 27 27 24 23 20 20 17 16 16 17 21 24 24 29 28
1039 945 824 789 743 743 663 591 561 561 454 350 234 234 211 218 218 224 203 160 160 121 89 93 154 154 135 101 46 46 24 13 8 8 5 2 2 0 nan nan nan 0 1 0 nan nan nan nan nan nan nan nan nan nan nan nan nan nan nan nan nan 10 29 29 29 29 27 25 25 25 25 23 17 17 11 5 5 4 16 37 37 59 68 59 43 43 31 24 23 23 20 19 17 17 15 13 13 14 19 27 27 32 33
1004 865 797 717 634 634 603 571 504 504 433 301 244 244 222 230 230 237 242 196 196 154 117 121 142 142 124 91 49 49 20 11 7 7 3 1 1 nan nan nan nan 0 1 1 nan nan nan nan nan nan nan nan nan nan nan nan nan nan nan nan nan 28 31 30 29 29 26 26 27 27 27 27 21 21 14 9 9 10 24 41 41 49 48 36 24 24 18 15 14 14 14 15 14 14 14 13 13 14 20 27 27 36 37
923 835 722 649 574 574 582 550 519 519 410 313 256 256 234 243 243 250 229 209 209 166 149 132 153 153 113 81 42 42 17 10 5 5 1 nan nan nan nan nan nan 0 2 1 nan nan nan nan nan nan nan nan nan nan nan nan nan nan nan nan nan 23 35 34 31 31 27 25 27 27 27 30 21 21 15 10 10 14 24 34 34 31 23 16 14 14 11 7 7 7 10 13 12 12 13 12 12 14 20 25 25 34 39
893 806 652 547 555 555 562 531 460 460 389 296 241 241 247 255 255 237 242 222 222 179 162 143 123 123 87 59 35 35 19 7 3 3 0 nan nan nan nan nan nan nan 1 1 nan nan nan nan nan nan nan nan nan nan nan nan nan nan nan nan nan 14 39 38 31 31 28 26 26 26 27 27 23 23 17 13 13 15 23 24 24 21 15 12 8 8 6 4 6 6 9 11 12 12 12 12 12 13 16 23 23 31 35
867 734 627 529 538 538 543 549 438 438 339 251 252 252 234 241 241 201 230 210 210 171 135 136 114 114 80 39 28 28 14 5 0 0 nan nan nan nan nan nan nan nan 1 1 nan nan nan nan nan nan nan nan nan nan nan nan nan nan nan 0 0 19 35 38 35 35 28 28 25 25 25 26 22 22 18 16 16 15 17 17 17 16 11 7 4 4 2 5 9 9 11 11 13 13 13 10 10 11 15 20 20 25 28
798 632 566 550 521 521 562 527 418 418 321 235 237 237 245 205 205 212 217 200 200 164 130 128 105 105 71 44 22 22 10 2 nan nan nan nan nan nan nan nan nan nan 0 0 nan nan nan nan nan nan nan nan nan nan nan nan nan nan nan 5 5 27 32 38 37 37 33 27 24 24 23 19 20 20 19 19 19 18 17 16 16 16 13 9 5 5 5 10 13 13 14 13 15 15 11 10 10 10 11 15 15 17 17
622 581 550 567 500 500 539 505 433 433 333 244 222 222 207 216 216 200 206 169 169 156 140 118 114 114 77 47 24 24 7 nan nan nan nan nan nan nan nan nan nan nan nan nan nan nan nan nan nan nan nan nan nan nan nan nan nan nan nan 10 10 25 33 35 36 36 33 33 24 24 20 17 16 16 17 19 19 19 20 20 20 21 18 13 10 10 11 14 15 15 16 14 12 12 10 9 9 8 9 11 11 11 11
499 501 468 371 516 516 517 520 484 484 346 282 231 231 217 227 227 189 195 180 180 166 168 145 141 141 82 52 13 13 3 nan nan nan nan nan nan nan nan nan nan nan nan nan nan nan nan nan nan nan nan nan nan nan nan nan nan nan nan 24 24 25 30 34 36 36 35 34 25 25 19 14 13 13 14 15 15 18 21 24 24 24 21 16 13 13 12 15 17 17 17 16 12 12 11 8 8 10 9 9 9 8 7
379 453 205 261 424 424 462 537 500 500 388 292 217 217 182 171 171 177 184 190 190 175 175 152 128 128 90 32 8 8 1 nan nan nan nan nan nan nan nan nan nan nan nan nan nan nan nan nan nan nan nan nan nan nan nan nan nan nan 14 33 33 34 35 36 36 36 34 30 27 27 20 12 10 10 10 11 11 13 20 23 23 24 22 18 15 15 15 15 17 17 20 17 14 14 12 10 10 12 9 8 8 9 6
216 115 40 173 340 340 410 518 516 516 434 303 205 205 132 122 122 127 151 177 177 181 181 157 116 116 80 26 8 8 1 nan nan nan nan nan nan nan nan nan nan nan nan nan nan nan nan nan nan nan nan nan nan nan nan nan nan nan 36 42 42 42 44 42 39 39 34 32 27 27 17 11 9 9 9 8 8 9 13 19 19 22 24 19 16 16 13 13 15 15 19 16 16 16 15 13 13 10 8 8 8 8 8
nan nan nan 121 233 233 361 466 532 532 485 345 193 193 106 66 66 70 122 164 164 186 165 143 105 105 58 30 10 10 2 0 nan nan nan nan nan nan nan nan nan nan nan nan nan nan nan nan nan nan nan nan nan nan nan nan nan nan 52 48 48 49 48 47 43 43 38 33 27 27 18 11 9 9 9 5 5 5 8 13 13 16 18 19 16 16 14 13 15 15 15 15 16 16 16 15 15 14 12 10 10 10 11
nan nan nan 130 198 198 315 449 513 513 500 360 204 204 132 72 72 92 111 151 151 171 170 130 79 79 38 10 2 2 nan nan nan nan nan nan nan nan nan nan nan nan nan nan nan nan nan nan nan nan nan nan nan nan nan nan nan 10 61 55 55 55 56 54 47 47 42 35 27 27 19 14 14 14 14 10 10 10 6 8 8 9 13 17 16 16 16 15 15 15 16 16 16 16 18 16 16 16 16 15 15 13 13
nan nan 46 88 166 166 303 398 458 458 446 345 214 214 138 109 109 97 116 176 176 176 155 118 57 57 16 1 nan nan nan nan nan nan nan nan nan nan nan nan nan nan nan nan nan nan nan nan nan nan nan nan nan nan nan nan nan 18 58 56 56 53 58 63 57 57 51 40 30 30 23 15 14 14 17 18 18 15 12 9 9 11 10 14 15 15 16 17 18 18 17 19 20 20 22 19 19 19 19 18 18 16 14
nan nan 11 66 137 137 236 320 375 375 398 302 225 225 163 130 130 117 158 225 225 182 123 90 36 36 10 nan nan nan nan nan nan nan nan nan nan nan nan nan nan nan nan nan nan nan nan nan nan nan nan nan nan nan nan nan nan 28 48 51 51 58 66 69 69 69 65 53 35 35 26 18 16 16 22 24 24 24 20 17 17 13 14 15 16 16 17 22 23 23 24 25 26 26 27 25 25 25 21 20 20 18 14
nan 1 12 26 50 50 84 142 186 186 232 255 158 158 202 205 205 166 151 174 174 154 100 55 4 4 nan nan nan nan nan nan nan nan nan nan nan nan nan nan nan nan nan nan nan nan nan nan nan nan nan nan nan nan nan nan nan 129 55 48 48 77 69 60 68 68 109 80 51 51 42 37 30 30 28 30 30 32 27 25 25 24 24 23 23 23 26 29 29 29 30 30 32 32 31 31 31 27 22 17 17 15 12
13 33 nan 21 10 10 7 38 87 87 148 172 0 0 3 7 7 134 101 42 42 144 107 6 nan nan nan nan nan nan nan nan nan nan nan nan nan nan nan nan nan nan nan nan nan nan nan nan nan nan nan nan nan nan nan nan nan 112 79 39 39 55 62 60 77 77 109 91 63 63 62 60 45 45 37 31 31 30 29 25 25 25 26 26 25 25 29 32 32 32 31 31 30 30 30 32 32 26 20 15 15 12 9
6 13 3 nan nan nan nan nan nan nan nan 33 nan nan nan nan nan nan nan nan nan nan nan nan nan nan nan nan nan nan nan nan nan nan nan nan nan nan nan nan nan nan nan nan nan nan nan nan nan nan nan nan nan nan nan 1 1 29 50 37 37 37 43 51 70 70 108 102 107 107 108 73 57 57 44 37 37 31 27 26 26 26 26 26 26 26 27 30 32 32 35 31 31 31 30 25 25 23 18 14 14 9 6
4 4 3 nan nan nan nan nan nan nan nan nan nan nan nan nan nan nan nan nan nan nan nan nan nan nan nan nan nan nan nan nan nan nan nan nan nan nan nan nan nan nan nan nan nan nan nan nan nan nan nan nan nan nan nan nan nan 5 17 19 19 24 33 40 48 48 72 106 175 175 165 89 61 61 47 37 37 33 29 28 28 27 27 26 25 25 28 30 32 32 33 29 31 31 27 19 19 19 15 11 11 7 4
3 3 3 1 nan nan nan nan nan nan nan nan nan nan nan nan nan nan nan nan nan nan nan nan nan nan nan nan nan nan nan nan nan nan nan nan nan nan nan nan nan nan nan nan nan nan nan nan nan nan nan nan nan nan nan nan nan 1 7 7 7 15 25 28 34 34 45 76 180 180 253 88 50 50 50 42 42 34 33 31 31 31 30 30 29 29 29 28 28 28 29 27 25 25 23 16 16 14 13 8 8 5 3
2 2 2 0 nan nan nan nan nan nan nan nan nan nan nan nan nan nan nan nan nan nan nan nan nan nan nan nan nan nan nan nan nan nan nan nan nan nan nan nan nan nan nan nan nan nan nan nan nan nan nan nan nan nan nan nan nan nan 1 2 2 9 15 19 19 19 23 38 91 91 143 54 40 40 47 43 43 35 36 34 34 36 30 31 29 29 31 34 31 31 27 23 17 17 15 14 14 8 7 5 5 3 3
1 1 0 nan nan nan nan nan nan nan nan nan nan nan nan nan nan nan nan nan nan nan nan nan nan nan nan nan nan nan nan nan nan nan nan nan nan nan nan nan nan nan nan nan nan nan nan nan nan nan nan nan nan nan nan nan nan nan nan 0 0 3 7 12 12 12 12 21 37 37 71 40 39 39 46 43 43 38 32 33 33 37 32 30 29 29 34 36 40 40 32 26 16 16 8 9 9 6 6 5 5 3 1
0 0 nan nan nan nan nan nan nan nan nan nan nan nan nan nan nan nan nan nan nan nan nan nan nan nan nan nan nan nan nan nan nan nan nan nan nan nan nan nan nan nan nan nan nan nan nan nan nan nan nan nan nan nan nan nan nan nan nan nan nan nan 1 5 7 7 9 14 23 23 29 33 37 37 45 48 48 43 27 28 28 35 35 32 31 31 31 38 44 44 44 37 26 26 13 10 10 8 7 6 6 2 1
0 nan nan nan nan nan nan nan nan nan nan nan nan nan nan nan nan nan nan nan nan nan nan nan nan nan nan nan nan nan nan nan nan nan nan nan nan nan nan nan nan nan nan nan nan nan nan nan nan nan nan nan nan nan nan nan nan nan nan nan nan nan nan nan 3 3 6 10 18 18 19 24 35 35 49 48 48 37 27 24 24 27 32 36 35 35 37 39 45 45 53 51 40 40 25 19 19 15 13 10 10 5 3
nan nan nan nan nan nan nan nan nan nan nan nan nan nan nan nan nan nan nan nan nan nan nan nan nan nan nan nan nan nan nan nan nan nan nan nan nan nan nan nan nan nan nan nan nan nan nan nan nan nan nan nan nan nan nan nan nan nan nan nan nan nan nan nan nan nan 3 9 17 17 15 14 22 22 38 39 39 31 26 20 20 20 26 32 41 41 46 45 49 49 61 66 55 55 41 29 29 23 19 14 14 11 8
nan nan nan nan nan nan nan nan nan nan nan nan nan nan nan nan nan nan nan nan nan nan nan nan nan nan nan nan nan nan nan nan nan nan nan nan nan nan nan nan nan nan nan nan nan nan nan nan nan nan nan nan nan nan nan nan nan nan nan nan nan nan nan nan nan nan 0 5 13 13 14 7 11 11 20 31 31 30 25 19 19 17 23 29 44 44 52 58 56 56 65 81 68 68 55 42 42 25 21 17 17 17 16
nan nan nan nan nan nan nan nan nan nan nan nan nan nan nan nan nan nan nan nan nan nan nan nan nan nan nan nan nan nan nan nan nan nan nan nan nan nan nan nan nan nan nan nan nan nan nan nan nan nan nan nan nan nan nan nan nan nan nan nan nan nan nan nan nan nan nan 1 9 9 14 8 5 5 7 16 16 21 24 24 24 18 19 28 33 33 46 59 59 59 68 86 69 69 61 48 48 29 24 19 19 20 19
nan nan nan nan nan nan nan nan nan nan nan nan nan nan nan nan nan nan nan nan nan nan nan nan nan nan nan nan nan nan nan nan nan nan nan nan nan nan nan nan nan nan nan nan nan nan nan nan nan nan nan nan nan nan nan nan nan nan nan nan nan nan nan nan nan nan nan 0 4 4 10 10 5 5 3 6 6 11 17 16 16 14 14 11 9 9 25 49 55 55 72 87 72 72 65 57 57 39 34 20 20 26 25
nan nan nan nan nan nan nan nan nan nan nan nan nan nan nan nan nan nan nan nan nan nan nan nan nan nan nan nan nan nan nan nan nan nan nan nan nan nan nan nan nan nan nan nan nan nan nan nan nan nan nan nan nan nan nan nan nan nan nan nan nan nan nan nan nan nan nan nan 2 2 5 9 6 6 4 1 1 4 9 8 8 8 6 2 0 0 9 35 53 53 72 85 72 72 66 62 62 47 38 25 25 29 32
nan nan nan nan nan nan nan nan nan nan nan nan nan nan nan nan nan nan nan nan nan nan nan nan nan nan nan nan nan nan nan nan nan nan nan nan nan nan nan nan nan nan nan nan nan nan nan nan nan nan nan nan nan nan nan nan nan nan nan nan nan nan nan nan nan nan nan nan 0 0 3 11 8 8 5 1 1 1 3 3 3 5 4 1 nan nan 8 30 47 47 63 75 77 77 67 58 58 50 42 35 35 34 26
nan nan nan nan nan nan nan nan nan nan nan nan nan nan nan nan nan nan nan nan nan nan nan nan nan nan nan nan nan nan nan nan nan nan nan nan nan nan nan nan nan nan nan nan nan nan nan nan nan nan nan nan nan nan nan nan nan nan nan nan nan nan nan nan nan nan nan nan nan nan 1 7 12 12 7 3 3 1 2 4 4 5 4 1 nan nan 8 31 41 41 46 58 71 71 63 55 55 51 46 43 43 35 19
nan nan nan nan nan nan nan nan nan nan nan nan nan nan nan nan nan nan nan nan nan nan nan nan nan nan nan nan nan nan nan nan nan nan nan nan nan nan nan nan nan nan nan nan nan nan nan nan nan nan nan nan nan nan nan nan nan nan nan nan nan nan nan nan nan nan nan nan nan nan nan 4 14 14 12 9 9 4 3 5 5 5 5 1 nan nan 2 24 33 33 35 42 61 61 59 61 61 55 50 45 45 25 8
nan nan nan nan nan nan nan nan nan nan nan nan nan nan nan nan nan nan nan nan nan nan nan nan nan nan nan nan nan nan nan nan nan nan nan nan nan nan nan nan nan nan nan nan nan nan nan nan nan nan nan nan nan nan nan nan nan nan nan nan nan nan nan nan nan nan nan nan nan nan nan 1 14 14 17 17 17 14 10 10 10 6 8 2 nan nan nan 18 27 27 26 34 47 47 52 58 58 56 56 40 40 14 3
nan nan nan nan nan nan nan nan nan nan nan nan nan nan nan nan nan nan nan nan nan nan nan nan nan nan nan nan nan nan nan nan nan nan nan nan nan nan nan nan nan nan nan nan nan nan nan nan nan nan nan nan nan nan nan nan nan nan nan nan nan nan nan nan nan nan nan nan nan nan nan nan 12 12 22 23 23 23 19 18 18 14 13 5 nan nan nan 15 25 25 26 29 37 37 42 44 44 49 47 22 22 5 1
nan nan nan nan nan nan nan nan nan nan nan nan nan nan nan nan nan nan nan nan nan nan nan nan nan nan nan nan nan nan nan nan nan nan nan nan nan nan nan nan nan nan nan nan nan nan nan nan nan nan nan nan nan nan nan nan nan nan nan nan nan nan nan nan nan nan nan nan nan nan nan nan 3 3 17 28 28 33 33 26 26 23 17 9 0 0 nan 8 23 23 28 29 30 30 29 35 35 44 31 10 10 4 1
nan nan nan nan nan nan nan nan nan nan nan nan nan nan nan nan nan nan nan nan nan nan nan nan nan nan nan nan nan nan nan nan nan nan nan nan nan nan nan nan nan nan nan nan nan nan nan nan nan nan nan nan nan nan nan nan nan nan nan nan nan nan nan nan nan nan nan nan nan nan nan nan nan nan 6 30 30 48 54 43 43 37 26 14 3 3 nan 4 14 14 23 20 22 22 17 19 19 25 18 7 7 4 1
nan nan nan nan nan nan nan nan nan nan nan nan nan nan nan nan nan nan nan nan nan nan nan nan nan nan nan nan nan nan nan nan nan nan nan nan nan nan nan nan nan nan nan nan nan nan nan nan nan nan nan nan nan nan nan nan nan nan nan nan nan nan nan nan nan nan nan nan nan nan nan nan nan nan 0 17 17 46 82 90 90 83 42 17 6 6 0 0 3 3 8 13 15 15 9 5 5 6 16 8 8 5 1
nan nan nan nan nan nan nan nan nan nan nan nan nan nan nan nan nan nan nan nan nan nan nan nan nan nan nan nan nan nan nan nan nan nan nan nan nan nan nan nan nan nan nan nan nan nan nan nan nan nan nan nan nan nan nan nan nan nan nan nan nan nan nan nan nan nan nan nan nan nan nan nan nan nan nan 2 2 25 82 118 118 142 148 43 7 7 1 nan nan nan 0 1 5 5 4 1 1 4 15 19 19 6 nan
nan nan nan nan nan nan nan nan nan nan nan nan nan nan nan nan nan nan nan nan nan nan nan nan nan nan nan nan nan nan nan nan nan nan nan nan nan nan nan nan nan nan nan nan nan nan nan nan nan nan nan nan nan nan nan nan nan nan nan nan nan nan nan nan nan nan nan nan nan nan nan nan nan nan nan nan nan nan 0 2 2 7 48 116 23 23 2 nan nan nan nan nan 0 0 1 1 1 11 33 34 34 4 nan
nan nan nan nan nan nan nan nan nan nan nan nan nan nan nan nan nan nan nan nan nan nan nan nan nan nan nan nan nan nan nan nan nan nan nan nan nan nan nan nan nan nan nan nan nan nan nan nan nan nan nan nan nan nan nan nan nan nan nan nan nan nan nan nan nan nan nan nan nan nan nan nan nan nan nan nan nan nan nan nan nan 0 16 68 29 29 3 nan nan nan nan nan nan nan 0 2 2 10 34 32 32 4 nan
nan nan nan nan nan nan nan nan nan nan nan nan nan nan nan nan nan nan nan nan nan nan nan nan nan nan nan nan nan nan nan nan nan nan nan nan nan nan nan nan nan nan nan nan nan nan nan nan nan nan nan nan nan nan nan nan nan nan nan nan nan nan nan nan nan nan nan nan nan nan nan nan nan nan nan nan nan nan nan nan nan nan 5 39 50 50 5 nan nan nan nan nan nan nan 1 2 2 11 27 26 26 3 nan
nan nan nan nan nan nan nan nan nan nan nan nan nan nan nan nan nan nan nan nan nan nan nan nan nan nan nan nan nan nan nan nan nan nan nan nan nan nan nan nan nan nan nan nan nan nan nan nan nan nan nan nan nan nan nan nan nan nan nan nan nan nan nan nan nan nan nan nan nan nan nan nan nan nan nan nan nan nan nan nan nan nan nan 12 47 47 12 0 nan nan nan nan 0 0 2 5 5 14 26 19 19 1 nan
nan nan nan nan nan nan nan nan nan nan nan nan nan nan nan nan nan nan nan nan nan nan nan nan nan nan nan nan nan nan nan nan nan nan nan nan nan nan nan nan nan nan nan nan nan nan nan nan nan nan nan nan nan nan nan nan nan nan nan nan nan nan nan nan nan nan nan nan nan nan nan nan nan nan nan nan nan nan nan nan nan nan nan nan 15 15 12 2 nan nan nan nan 1 1 4 6 6 13 19 11 11 nan nan
nan nan nan nan nan nan nan nan nan nan nan nan nan nan nan nan nan nan nan nan nan nan nan nan nan nan nan nan nan nan nan nan nan nan nan nan nan nan nan nan nan nan nan nan nan nan nan nan nan nan nan nan nan nan nan nan nan nan nan nan nan nan nan nan nan nan nan nan nan nan nan nan nan nan nan nan nan nan nan nan nan nan nan nan nan nan nan nan nan nan 0 nan 2 2 5 7 7 10 15 7 7 0 nan
nan nan nan nan nan nan nan nan nan nan nan nan nan nan nan nan nan nan nan nan nan nan nan nan nan nan nan nan nan nan nan nan nan nan nan nan nan nan nan nan nan nan nan nan nan nan nan nan nan nan nan nan nan nan nan nan nan nan nan nan nan nan nan nan nan nan nan nan nan nan nan nan nan nan nan nan nan nan nan nan nan nan nan nan nan nan nan nan nan nan 3 0 3 3 6 8 8 9 14 8 8 2 0
nan nan nan nan nan nan nan nan nan nan nan nan nan nan nan nan nan nan nan nan nan nan nan nan nan nan nan nan nan nan nan nan nan nan nan nan nan nan nan nan nan nan nan nan nan nan nan nan nan nan nan nan nan nan nan nan nan nan nan nan nan nan nan nan nan nan nan nan nan nan nan nan nan nan nan nan nan nan nan nan nan nan nan nan nan nan nan nan nan nan 1 5 6 6 8 8 8 9 13 8 8 4 1
nan nan nan nan nan nan nan nan nan nan nan nan nan nan nan nan nan nan nan nan nan nan nan nan nan nan nan nan nan nan nan nan nan nan nan nan nan nan nan nan nan nan nan nan nan nan nan nan nan nan nan nan nan nan nan nan nan nan nan nan nan nan nan nan nan nan nan nan nan nan nan nan nan nan nan nan nan nan nan nan nan nan nan nan nan nan nan nan nan nan 1 17 12 12 7 6 6 8 12 13 13 8 4
nan nan nan nan nan nan nan nan nan nan nan nan nan nan nan nan nan nan nan nan nan nan nan nan nan nan nan nan nan nan nan nan nan nan nan nan nan nan nan nan nan nan nan nan nan nan nan nan nan nan nan nan nan nan nan nan nan nan nan nan nan nan nan nan nan nan nan nan nan nan nan nan nan nan nan nan nan nan nan nan nan nan nan nan nan nan nan nan nan nan nan 8 9 9 3 4 4 7 11 12 12 9 8
nan nan nan nan nan nan nan nan nan nan nan nan nan nan nan nan nan nan nan nan nan nan nan nan nan nan nan nan nan nan nan nan nan nan nan nan nan nan nan nan nan nan nan nan nan nan nan nan nan nan nan nan nan nan nan nan nan nan nan nan nan nan nan nan nan nan nan nan nan nan nan nan nan nan nan nan nan nan nan nan nan nan nan nan nan nan nan nan nan nan nan nan 1 1 1 1 1 7 11 14 14 12 12
nan nan nan nan nan nan nan nan nan nan nan nan nan nan nan nan nan nan nan nan nan nan nan nan nan nan nan nan nan nan nan nan nan nan nan nan nan nan nan nan nan nan nan nan nan nan nan nan nan nan nan nan nan nan nan nan nan nan nan nan nan nan nan nan nan nan nan nan nan nan nan nan nan nan nan nan nan nan nan nan nan nan nan nan nan nan nan nan nan nan nan nan nan nan nan 5 5 7 8 12 12 14 16
nan nan nan nan nan nan nan nan nan nan nan nan nan nan nan nan nan nan nan nan nan nan nan nan nan nan nan nan nan nan nan nan nan nan nan nan nan nan nan nan nan nan nan nan nan nan nan nan nan nan nan nan nan nan nan nan nan nan nan nan nan nan nan nan nan nan nan nan nan nan nan nan nan nan nan nan nan nan nan nan nan nan nan nan nan nan nan nan nan nan nan nan nan nan nan 4 4 6 5 9 9 11 18
nan nan nan nan nan nan nan nan nan nan nan nan nan nan nan nan nan nan nan nan nan nan nan nan nan nan nan nan nan nan nan nan nan nan nan nan nan nan nan nan nan nan nan nan nan nan nan nan nan nan nan nan nan nan nan nan nan nan nan nan nan nan nan nan nan nan nan nan nan nan nan nan nan nan nan nan nan nan nan nan nan nan nan nan nan nan nan nan nan nan nan nan nan nan nan nan nan 2 3 6 6 10 20
nan nan nan nan nan nan nan nan nan nan nan nan nan nan nan nan nan nan nan nan nan nan nan nan nan nan nan nan 0 0 nan nan nan nan nan nan nan nan nan nan nan nan nan nan nan nan nan nan nan nan nan nan nan nan nan nan nan nan nan nan nan nan nan nan nan nan nan nan nan nan nan nan nan nan nan nan nan nan nan nan nan nan nan nan nan nan nan nan nan nan nan nan nan nan nan nan nan nan 1 4 4 9 19
nan nan nan nan nan nan nan nan nan nan nan nan nan nan nan nan nan nan nan nan nan nan nan nan nan nan nan nan 3 3 8 2 nan nan nan nan nan nan nan nan nan nan nan nan nan nan nan nan nan nan nan nan nan nan nan nan nan nan nan nan nan nan nan nan nan nan nan nan nan nan nan nan nan nan nan nan nan nan nan nan nan nan nan nan nan nan nan nan nan nan nan nan nan nan nan nan nan nan nan 3 3 9 19
nan nan nan nan nan nan nan nan nan nan nan nan nan nan nan nan nan nan nan nan nan nan nan nan nan nan nan nan 3 3 13 4 nan nan nan nan nan nan nan nan nan nan nan nan nan nan nan nan nan nan nan nan nan nan nan nan nan nan nan nan nan nan nan nan nan nan nan nan nan nan nan nan nan nan nan nan nan nan nan nan nan nan nan nan nan nan nan nan nan nan nan nan nan nan nan nan nan nan nan 2 2 12 18
nan nan nan nan nan nan nan nan nan nan nan nan nan nan nan nan nan nan nan nan nan nan nan nan nan nan nan nan 3 3 11 5 nan nan nan nan nan nan nan nan nan nan nan nan nan nan nan nan nan nan nan nan nan nan nan nan nan nan nan nan nan nan nan nan nan nan nan nan nan nan nan nan nan nan nan nan nan nan nan nan nan nan nan nan nan nan nan nan nan nan nan nan nan nan nan nan nan nan nan 2 2 13 17
nan nan nan nan nan nan nan 4 2 2 0 nan 1 1 1 2 2 4 3 1 1 nan nan nan nan nan nan nan 1 1 11 1 nan nan nan 3 3 nan nan nan nan nan nan nan nan nan nan nan nan nan nan nan nan nan nan nan nan nan nan nan nan nan nan nan nan nan nan nan nan nan nan nan nan nan nan nan nan nan nan nan nan nan nan nan nan nan nan nan nan nan nan nan nan nan nan nan nan nan nan 2 2 14 22